Regional Weather Roundup
Issued by NWS

Home | Current Version | Previous Version | Text Only | Print | Product List | Glossary Off
Versions: 1 2 3 4 5 6 7 8 9 10 11 12 13 14 15 16 17 18 19 20 21 22 23 24 25 26 27 28 29 30 31 32 33 34 35 36 37 38 39 40 41 42 43 44 45 46 47 48 49 50

000
ASUS44 KMEG 220510
RWRTN
TENNESSEE HOURLY STATE WEATHER ROUNDUP
NATIONAL WEATHER SERVICE MEMPHIS TN
1100 PM CST TUE FEB 21 2017

TNZ002-004-019-021-049-052-054-088>092-220600-
WEST TENNESSEE

CITY           SKY/WX    TMP DP  RH WIND       PRES   REMARKS
MEMPHIS INTL   CLOUDY    61  60  97 E8        29.88F
NWS MEMPHIS      N/A     59 N/A N/A MISG        N/A
JACKSON        CLOUDY    59  58  96 E3        29.92R
UNION CITY     CLOUDY   N/A N/A N/A CALM      29.91F
PARIS          CLOUDY    57  55  94 SE3       29.93F
HUNTINGDON     CLOUDY    59  57  94 CALM      29.92F
$$

TNZ008-025-027-028-033-062-065-066-220600-
NORTH MIDDLE TENNESSEE

CITY           SKY/WX    TMP DP  RH WIND       PRES   REMARKS
NASHVILLE      CLOUDY    58  55  90 CALM      29.95R
PORTLAND       CLOUDY    57  55  94 CALM      29.95R
CLARKSVILLE    CLOUDY    58  55  90 S3        29.95R
SMYRNA         CLOUDY    56  55  97 CALM      29.95R FOG
COOKEVILLE     MOCLDY    59  54  82 VRB3      29.93F
GALLATIN       CLOUDY    57  55  94 CALM      29.97R
CROSSVILLE     CLOUDY    54  52  93 S5        29.98S
$$

TNZ061-075-076-078-094-096-097-220600-
SOUTH MIDDLE TENNESSEE

CITY           SKY/WX    TMP DP  RH WIND       PRES   REMARKS
FAYETTEVILLE   CLOUDY    57  57 100 SE5       29.93F
TULLAHOMA      CLOUDY    57  54  88 SE8       29.94F
WINCHESTER     CLOUDY    57  55  94 SE10      29.94F
MCMINNVILLE    MOCLDY    61  55  82 VRB3      29.94S
COLUMBIA       CLOUDY   N/A N/A N/A CALM      29.92F
SHELBYVILLE    CLOUDY    59  55  88 CALM      29.94F
$$

TNZ017-018-042-046-047-220600-
NORTHEAST TENNESSEE

CITY           SKY/WX    TMP DP  RH WIND       PRES   REMARKS
TRI CITIES     CLOUDY    58  45  62 E3        30.02F
ELIZABETHTON   CLOUDY    59  43  55 E9        30.03F
$$

TNZ012-013-036-069-073-074-220600-
CENTRAL EAST TENNESSEE

CITY           SKY/WX    TMP DP  RH WIND       PRES   REMARKS
KNOXVILLE      LGT RAIN  60  49  66 W3        29.96F
OAK RIDGE      CLOUDY    57  54  89 CALM      29.98F
GATLINBURG     MOCLDY    55  46  71 CALM      29.96F
MORRISTOWN     CLOUDY    61  48  63 E5        29.97S
JACKSBORO      CLOUDY    55  55 100 CALM      30.00F FOG
$$

TNZ083-085-099-220600-
SOUTHEAST TENNESSEE

CITY           SKY/WX    TMP DP  RH WIND       PRES   REMARKS
CHATTANOOGA    CLOUDY    57  56  96 N3        29.96F FOG
$$

SKY/WX REPORTED AS FAIR MEANS FEW OR NO CLOUDS BELOW
12 THOUSAND FEET.




USA.gov is the U.S. government's official web portal to all federal, state and local government web resources and services.